Other Public Products
Issued by NWS Grand Forks, ND

Home | Current Version | Previous Version | Graphics & Text | Print | Product List | Glossary On
Versions: 1 2 3 4 5 6 7 8 9 10 11 12 13 14 15 16 17 18 19 20 21 22 23 24 25 26 27 28 29 30 31 32 33 34 35 36 37 38 39 40 41 42 43 44 45 46 47 48 49 50
563
FPUS83 KFGF 230031
OPUFGF
PRAIRIE TO PINES WEATHER ROUNDUP
NATIONAL WEATHER SERVICE EASTERN NORTH DAKOTA/GRAND FORKS ND
700 PM CDT FRI SEP 22 2017

 **SATELLITE DATA USED TO AUGMENT SKY COVER AT AUTOMATED STATIONS**
 *****  WEATHER ACROSS EASTERN NORTH DAKOTA  *****

CITY           SKY/WX    TMP DP  RH WIND       PRES   REMARKS
GRAND FORKS    MOCLDY    65  56  72 N22G28    29.68R
6HR MIN TEMP:  65; 6HR MAX TEMP:  76;

GRAND FORKS AF MOCLDY    61  52  72 N30       29.72R
GRAND CITY NWS NOT AVBL
BUXTON           N/A     70  62  75 N12         N/A
DEVILS LAKE    LGT RAIN  52  50  93 N18       29.82R
6HR MIN TEMP:  52; 6HR MAX TEMP:  59; 6HR PCP: TRACE;

FARGO          FAIR      87  71  58 S10       29.61F HX  93
6HR MIN TEMP:  80; 6HR MAX TEMP:  88;

WAHPETON ARPT  FAIR      82  66  57 SE6       29.64S
$$

 *****  WEATHER ACROSS CENTRAL AND WESTERN NORTH DAKOTA  *****

CITY           SKY/WX    TMP DP  RH WIND       PRES   REMARKS
JAMESTOWN      CLOUDY    59  50  72 N18G28    29.74R
6HR MIN TEMP:  59; 6HR MAX TEMP:  64; 6HR PCP: TRACE;

BISMARCK       CLOUDY    50  47  89 N16G23    29.89R
6HR MIN TEMP:  50; 6HR MAX TEMP:  56; 6HR PCP: TRACE;

MINOT          CLOUDY    50  44  80 NW16G23   29.95R
6HR MIN TEMP:  49; 6HR MAX TEMP:  51; 6HR PCP: TRACE;

MINOT AFB      CLOUDY    49  43  81 N17       29.95R
6HR MIN TEMP:  48; 6HR MAX TEMP:  50; 6HR PCP:  0.01;

GARRISON         N/A     48  42  80 N20G29    29.92S
6HR MIN TEMP:  47; 6HR MAX TEMP:  48; 6HR PCP:  0.01;

WILLISTON      CLOUDY    47  41  80 N12       30.02F
6HR MIN TEMP:  47; 6HR MAX TEMP:  51; 6HR PCP: TRACE;

DICKINSON      NOT AVBL
HETTINGER      CLOUDY    48  37  65 N14G22    29.96R
6HR MIN TEMP:  48; 6HR MAX TEMP:  50;

$$

 *****  OTHER OBSERVATIONS NORTHEAST NORTH DAKOTA  *****

CITY           SKY/WX    TMP DP  RH WIND       PRES   REMARKS
WALHALLA       FAIR     N/A N/A N/A N22       29.81F
LANGDON        CLOUDY    52  52 100 N17G28    29.84R FOG
CAVALIER       CLOUDY    54  50  87 N20G26    29.77F
GRAFTON        CLOUDY    55  54  94 N18G28    29.74F
CANDO          CLOUDY    52  52 100 N18G29    29.87R
FORT TOTTEN      N/A     52  51  97 N7        29.95S
ROLLA          CLOUDY    46  46 100 N23G31    29.90R
RUGBY          CLOUDY    50  46  87 N15       29.88F
 ***** THE ABOVE OBSERVATIONS ARE NON NWS ARE NOT QUALITY
        CONTROLLED AND MAY MIS-REPORT RAIN FOR SNOW...
$$

 *****  OTHER OBSERVATIONS SOUTHEAST NORTH DAKOTA *****

CITY           SKY/WX    TMP DP  RH WIND       PRES   REMARKS
COOPERSTOWN    CLOUDY    61  52  72 N18       29.73R
VALLEY CITY    MOCLDY    63  59  88 NW16G23   29.72R
OAKES          NOT AVBL
GWINNER        PTCLDY    79  59  50 SW12G18   29.66R
SHEYENNE NWR     N/A     85  71  62 S7        29.95S HX  90
BUFFALO          N/A     70  58  63 NW9         N/A
WYNDMERE       NOT AVBL
 ***** THE ABOVE OBSERVATIONS ARE NON NWS ARE NOT QUALITY
       CONTROLLED AND MAY MIS-REPORT RAIN FOR SNOW...
$$

  *****  WEATHER ACROSS NORTHERN MINNESOTA  *****

CITY           SKY/WX    TMP DP  RH WIND       PRES   REMARKS
FLAG ISLAND    FAIR      66  61  82 NE5       29.73S
WARROAD        CLOUDY    64  61  88 E12       29.73S
ROSEAU         FAIR      66  61  82 NE9       29.72R
HALLOCK          N/A     61  55  82 N16       29.74R
THF RVR FALLS  MOCLDY    73  68  83 N7        29.69R
HALSTAD          N/A     76  70  80 N6          N/A
FOSSTON        FAIR      79  70  73 SE6       29.67F
BAUDETTE       CLOUDY    70  68  93 E8        29.73F
6HR MIN TEMP:  69; 6HR MAX TEMP:  74; 6HR PCP: TRACE;

WASKISH        FAIR      72  70  94 E7        29.73F
CROOKSTON      FAIR      75  68  78 N6        29.65S
$$
  *****  WEATHER ACROSS CENTRAL AND WEST MINNESOTA  *****

CITY           SKY/WX    TMP DP  RH WIND       PRES   REMARKS
BEMIDJI        CLOUDY    75  72  88 E5        29.73R
6HR MIN TEMP:  74; 6HR MAX TEMP:  78;

PARK RAPIDS    FAIR      82  74  76 SE13      29.71S
6HR MIN TEMP:  77; 6HR MAX TEMP:  83;

WADENA         FAIR      81  72  74 S9G16     29.71R
DETROIT LAKES  FAIR      79  72  78 SE7       29.69F
MOORHEAD       FAIR      84  70  61 SE6       29.62F
FERGUS FALLS   FAIR      81  72  74 S7        29.65S
ELBOW LAKE     FAIR      81  71  71 S10       29.69R HAZE
MORRIS MN      FAIR      84  70  61 S10       29.68R
STAPLES        FAIR      81  70  69 S9        29.72R
WHEATON        FAIR      84  68  58 SE10      29.67R
$$
  *****  WEATHER ELSEWHERE ACROSS MINNESOTA  *****

CITY           SKY/WX    TMP DP  RH WIND       PRES   REMARKS
DULUTH         FAIR      69  67  93 SE10      29.81F
6HR MIN TEMP:  68; 6HR MAX TEMP:  78;

INTRNTL FALLS  LGT RAIN  72  69  90 CALM      29.77S
6HR MIN TEMP:  72; 6HR MAX TEMP:  76; 6HR PCP: TRACE;

ELY            FAIR      73  68  83 SE6       29.80F
CLOQUET        FAIR      75  68  78 E7        29.79S
BRAINERD       FAIR      81  72  74 S10       29.73S
6HR MIN TEMP:  77; 6HR MAX TEMP:  84;

HIBBING        FAIR      76  71  85 SE8       29.77S
6HR MIN TEMP:  74; 6HR MAX TEMP:  78;

ALEXANDRIA     NOT AVBL
SAINT CLOUD    FAIR      84  73  69 SE12      29.74S HX  90
6HR MIN TEMP:  82; 6HR MAX TEMP:  89;

MINNEAPOLIS    FAIR      89  69  51 S13       29.79S HX  93
6HR MIN TEMP:  89; 6HR MAX TEMP:  94;

$$

  *****  WEATHER ACROSS SOUTH DAKOTA  *****

CITY           SKY/WX    TMP DP  RH WIND       PRES   REMARKS
SIOUX FALLS    MOCLDY    88  69  53 S15G23    29.73R HX  92
6HR MIN TEMP:  88; 6HR MAX TEMP:  91;

BROOKINGS      FAIR      75  64  69 S14       29.73S
WATERTOWN      FAIR      78  64  61 SW8       29.71R
6HR MIN TEMP:  78; 6HR MAX TEMP:  89;

HURON          FAIR      75  57  53 NW18G24   29.72R
6HR MIN TEMP:  75; 6HR MAX TEMP:  90;

SISSETON         N/A     82  64  54 W8        29.65R
ABERDEEN       FAIR      71  61  70 W16G23    29.70R
6HR MIN TEMP:  71; 6HR MAX TEMP:  91;

MITCHELL       TSTM      72  62  71 VRB3      29.77R
PIERRE         FAIR      57  46  66 NW22G30   29.82R
6HR MIN TEMP:  60; 6HR MAX TEMP:  72;

MOBRIDGE       CLOUDY    53  47  79 NW16      29.83R
RAPID CITY     CLEAR     54  37  54 N23       29.92R
$$

  *****  SOME WEATHER IN NEARBY STATES *****

CITY           SKY/WX    TMP DP  RH WIND       PRES   REMARKS
GLASGOW MT     CLOUDY    47  39  74 NE5       30.06R
6HR MIN TEMP:  43; 6HR MAX TEMP:  48; 6HR PCP:  0.01;

GREAT FALLS MT CLOUDY    37  34  89 N7        30.08R
6HR MIN TEMP:  36; 6HR MAX TEMP:  38; 6HR PCP:  0.12;

CHEYENNE WY    FAIR      58  35  42 NE14G26   29.90R
6HR MIN TEMP:  57; 6HR MAX TEMP:  68; 6HR PCP: TRACE;

SCOTTSBLUFF NE FAIR      69  43  38 E6        29.85R
6HR MIN TEMP:  65; 6HR MAX TEMP:  75;

OMAHA NE       MOCLDY    89  67  47 S21       29.82R HX  92
6HR MIN TEMP:  89; 6HR MAX TEMP:  95;

DES MOINES IA  FAIR      86  67  52 SE10      29.90S
6HR MIN TEMP:  86; 6HR MAX TEMP:  92;

DAVENPORT IA   FAIR      82  65  56 S6        29.99F
6HR MIN TEMP:  82; 6HR MAX TEMP:  91;

CHICAGO IL     FAIR      87  63  44 S7        30.01S
6HR MIN TEMP:  87; 6HR MAX TEMP:  94;

EAU CLAIRE WI  FAIR      85  68  56 SE10      29.88S
6HR MIN TEMP:  85; 6HR MAX TEMP:  92;

LA CROSSE WI   FAIR      89  67  47 S13       29.90S HX  92
6HR MIN TEMP:  89; 6HR MAX TEMP:  95;

$$

  *****  SOME NATIONAL WEATHER *****

CITY           SKY/WX    TMP DP  RH WIND       PRES   REMARKS
LA GUARDIA NY  MOCLDY    77  56  48 N12G20    29.95R
6HR MIN TEMP:  77; 6HR MAX TEMP:  81;

RALEIGH NC     FAIR      78  66  66 CALM      30.01R
6HR MIN TEMP:  76; 6HR MAX TEMP:  89;

ATLANTA GA     FAIR      82  66  58 CALM      30.01R



USA.gov is the U.S. government's official web portal to all federal, state and local government web resources and services.